Find Starlink 6301

NORAD ID: 56392 Int'l Des: 2023-061 Owner: SPXS Country: US Constellation: starlink operational
LEOCIRCULAR

当前视图

正在加载3D地球...

About Starlink 6301

Starlink 6301 (NORAD 56392) is a starlink constellation satellite (v1.5) launched May 4, 2023 by SPXS of US. It operates in LEO, CIRCULAR orbit with a mass of 305.00 kg.

即将过境

Passes for default location (London). Set your location on the main map for personalized predictions.

高度历史

Loading altitude history...

两行轨道根数

1 56392U 23061U 26263.09045242 -.00000359 00000-0 -35096-5 0 9999
2 56392 43.0008 169.3479 0001053 264.1511 95.9220 15.27573752186602
Epoch: Sep 20, 2026 • Age: 33 hours

当前状态

高度 495.0 km
远地点 / 近地点 N/A
速度 7.62 km/s
星下点 -41.55°S, 71.53°W
发射日期 May 4, 2023
运行时间 3.3 years
类型 internet

技术详情

分类 Payload
质量 305.00 kg
干质量 290.00 kg
长度 0.20 m
跨度 9.00 m
形状 ? Box + pan
制造商 SPXS
平台类型 Starlink
阶段状态 In Orbit
所有者/国家 SPXS/US

Most Searched